TimeEEST,TemperatureF,Dew PointF,Humidity,Sea Level PressureIn,VisibilityMPH,Wind Direction,Wind SpeedMPH,Gust SpeedMPH,PrecipitationIn,Events,Conditions,WindDirDegrees,DateUTC
4:50 AM,77.0,59.0,54,29.77,-9999.0,NNE,11.5,-,N/A,,Clear,20,2013-08-19 01:50:00
5:20 AM,77.0,59.0,54,29.77,-9999.0,NNE,11.5,-,N/A,,Clear,20,2013-08-19 02:20:00
5:50 AM,77.0,59.0,54,29.77,-9999.0,NNE,11.5,-,N/A,,Clear,20,2013-08-19 02:50:00
6:20 AM,77.0,59.0,54,29.77,-9999.0,NNE,11.5,-,N/A,,Clear,20,2013-08-19 03:20:00
6:50 AM,77.0,60.8,57,29.77,-9999.0,NNE,11.5,-,N/A,,Clear,20,2013-08-19 03:50:00
7:20 AM,78.8,60.8,54,29.77,-9999.0,NNE,11.5,-,N/A,,Clear,20,2013-08-19 04:20:00
7:50 AM,78.8,62.6,57,29.80,-9999.0,NNE,11.5,-,N/A,,Clear,20,2013-08-19 04:50:00
8:20 AM,78.8,62.6,57,29.80,-9999.0,NNE,13.8,-,N/A,,Clear,30,2013-08-19 05:20:00
8:50 AM,80.6,66.2,61,29.80,-9999.0,NNE,13.8,25.3,N/A,,Clear,20,2013-08-19 05:50:00
9:00 AM,81,67,53,29.81,6,NNE,13.8,,,,,20,2013-08-19 06:00:00
9:20 AM,80.6,66.2,61,29.80,-9999.0,NNE,13.8,-,N/A,,Clear,20,2013-08-19 06:20:00
9:50 AM,80.6,68.0,65,29.80,-9999.0,NNE,17.3,-,N/A,,Clear,20,2013-08-19 06:50:00
10:20 AM,82.4,68.0,62,29.80,-9999.0,NNE,17.3,-,N/A,,Clear,20,2013-08-19 07:20:00
10:50 AM,84.2,68.0,58,29.80,-9999.0,NNE,13.8,-,N/A,,Clear,30,2013-08-19 07:50:00
11:20 AM,84.2,68.0,58,29.80,-9999.0,NNE,13.8,-,N/A,,Clear,30,2013-08-19 08:20:00
11:50 AM,86.0,69.8,58,29.83,-9999.0,NNE,13.8,-,N/A,,Clear,20,2013-08-19 08:50:00
12:20 PM,86.0,69.8,58,29.83,-9999.0,NNE,13.8,-,N/A,,Clear,20,2013-08-19 09:20:00
12:50 PM,87.8,68.0,52,29.83,-9999.0,NNE,11.5,-,N/A,,Clear,20,2013-08-19 09:50:00
1:20 PM,91.4,60.8,36,29.80,-9999.0,North,13.8,-,N/A,,Clear,10,2013-08-19 10:20:00
1:50 PM,91.4,60.8,36,29.80,-9999.0,North,13.8,-,N/A,,Clear,10,2013-08-19 10:50:00
2:20 PM,91.4,60.8,36,29.80,-9999.0,North,13.8,-,N/A,,Clear,360,2013-08-19 11:20:00
2:50 PM,93.2,60.8,34,29.77,-9999.0,North,13.8,-,N/A,,Clear,10,2013-08-19 11:50:00
3:00 PM,93,60,24,29.78,6,North,13.8,,,,,10,2013-08-19 12:00:00
3:20 PM,93.2,60.8,34,29.77,-9999.0,North,12.7,-,N/A,,Clear,360,2013-08-19 12:20:00
3:50 PM,93.2,60.8,34,29.74,-9999.0,North,12.7,-,N/A,,Clear,360,2013-08-19 12:50:00
4:20 PM,95.0,57.2,28,29.74,-9999.0,North,11.5,-,N/A,,Clear,360,2013-08-19 13:20:00
4:50 PM,95.0,57.2,28,29.74,-9999.0,North,12.7,-,N/A,,Clear,360,2013-08-19 13:50:00
5:20 PM,93.2,59.0,32,29.74,-9999.0,North,12.7,-,N/A,,Clear,10,2013-08-19 14:20:00
5:50 PM,93.2,59.0,32,29.74,-9999.0,North,12.7,-,N/A,,Clear,360,2013-08-19 14:50:00
6:20 PM,93.2,59.0,32,29.74,-9999.0,North,11.5,-,N/A,,Clear,360,2013-08-19 15:20:00
6:50 PM,91.4,60.8,36,29.74,-9999.0,NNW,13.8,-,N/A,,Clear,340,2013-08-19 15:50:00
7:20 PM,91.4,57.2,31,29.74,-9999.0,NNW,13.8,-,N/A,,Clear,340,2013-08-19 16:20:00
7:50 PM,89.6,57.2,33,29.74,-9999.0,NNW,15.0,-,N/A,,Clear,340,2013-08-19 16:50:00
8:20 PM,87.8,59.0,38,29.74,-9999.0,North,15.0,-,N/A,,Clear,350,2013-08-19 17:20:00
8:50 PM,87.8,59.0,38,29.74,-9999.0,NNW,16.1,-,N/A,,Clear,340,2013-08-19 17:50:00